Regional Weather Roundup
Issued by NWS Albany, NY

Home | Current Version | Previous Version | Graphics & Text | Print | Product List | Glossary Off
Versions: 1 2 3 4 5 6 7 8 9 10 11 12 13 14 15 16 17 18 19 20 21 22 23 24 25 26 27

000
ASUS41 KALY 291710
RWRALY

NEW YORK STATE HOURLY WEATHER ROUNDUP
NATIONAL WEATHER SERVICE ALBANY NY
100 PM EDT SUN MAY 29 2016

NOTE: "FAIR" INDICATES FEW OR NO CLOUDS BELOW 12,000 FEET WITH NO
SIGNIFICANT WEATHER AND/OR NO OBSTRUCTIONS TO VISIBILITY.

NYZ032-033-038>043-046>054-057>066-NYZ062>081-082-084-291800-
EAST


CITY           SKY/WX    TMP DP  RH WIND       PRES   REMARKS
ALBANY         PTSUNNY   86  66  51 S7        30.05F
GLENS FALLS    MOSUNNY   87  69  54 S7        30.04F HX  91
POUGHKEEPSIE   PTSUNNY   89  67  47 S9G16     30.07F HX  92
NEWBURGH       MOSUNNY   86  70  58 SW9       30.10F HX  90
MONTGOMERY     SUNNY     88  70  55 S10G18    30.07F HX  93
WHITE PLAINS   PTSUNNY   85  62  46 SE14G21   30.12F
ISLIP          CLOUDY    78  60  53 S10       30.14S
NEW YORK CITY  PTSUNNY   84  66  54 S14       30.11F
CENTRAL PARK   MOSUNNY   86  59  39 VRB7      30.14F
$$

NYZ005>009-017-018-044>046-055-056-291800-
CENTRAL


CITY           SKY/WX    TMP DP  RH WIND       PRES   REMARKS
FULTON         CLOUDY    88  68  51 W6        30.04F HX  91
SYRACUSE       CLOUDY    86  66  51 W5        30.03F
ROME           TSTM      77  67  71 S16       30.07R
ELMIRA         CLOUDY    89  64  43 SW12      30.04F HX  90
BINGHAMTON     MOSUNNY   83  65  54 SW12      30.10F
MONTICELLO     MOSUNNY   84  66  54 S10       30.14F
$$

NYZ026>034-041>043-087-291800-
NORTH


CITY           SKY/WX    TMP DP  RH WIND       PRES   REMARKS
WATERTOWN      MOSUNNY   81  66  60 W12       30.03F
FORT DRUM      NOT AVBL
MASSENA        CLOUDY    79  63  57 E3        30.03F
SARANAC LAKE   MOSUNNY   86  59  39 VRB3      30.06F
PLATTSBURGH    PTSUNNY   81  67  62 NE9       30.04F
$$

NYZ001>004-010>016-019>021-085-291800-
WEST


CITY           SKY/WX    TMP DP  RH WIND       PRES   REMARKS
NIAGARA FALLS  PTSUNNY   85  63  47 S13       30.04F
BUFFALO        PTSUNNY   82  63  52 W12       30.05F
DUNKIRK        CLOUDY    81  66  60 NW8       30.06F
WELLSVILLE     CLOUDY    76  66  71 W8        30.14F
ROCHESTER      CLOUDY    85  66  53 CALM      30.05F
PENN YAN       MOSUNNY   84  67  56 W3        30.07F
$$

             KEY
       WCI = WIND CHILL INDEX
       VSB = VISIBILITY
       HX  = HEAT INDEX
$$




USA.gov is the U.S. government's official web portal to all federal, state and local government web resources and services.